Regional Weather Roundup
Issued by NWS

Home | Current Version | Previous Version | Text Only | Print | Product List | Glossary On
Versions: 1 2 3 4 5 6 7 8 9 10 11 12 13 14 15 16 17 18 19 20 21 22 23 24 25 26 27 28 29 30 31 32 33 34 35 36 37 38 39 40 41 42 43 44 45 46 47 48 49 50
000
ASUS45 KBOU 272107
RWRCO

WEATHER ROUNDUP FOR COLORADO
NATIONAL WEATHER SERVICE DENVER/BOULDER CO
200 PM MST MON FEB 27 2017

NOTE: "FAIR" INDICATES FEW OR NO CLOUDS BELOW 12000 FEET WITH NO
SIGNIFICANT WEATHER AND/OR OBSTRUCTIONS TO VISIBILITY.

COZ001>005-013-030-031-272200-
...NORTHWEST COLORADO...

CITY           SKY/WX    TMP DP  RH WIND       PRES   REMARKS
CRAIG          CLOUDY    32  23  69 W12G31    29.57F WCI  23
HAYDEN         FAIR      37  18  44 SW18G28   29.55F
MEEKER         PTSUNNY   41  25  53 SW28G36   29.58F
MOUNT WERNER   NOT AVBL
STEAMBOAT SPGS CLOUDY    35  19  53 SW18G31   29.56F WCI  24
WALDEN         NOT AVBL
$$

COZ006>008-011-272200-
...WEST CENTRAL VALLEYS...

CITY           SKY/WX    TMP DP  RH WIND       PRES   REMARKS
GRAND JUNCTION PTSUNNY   48  24  39 SW14G28   29.66F
MONTROSE       FAIR      45  20  36 SW28G41   29.71R
EAGLE          LGT SNOW  36  25  64 W17G29    29.65F
RIFLE          CLOUDY    41  27  57 W12G18    29.65F
DELTA          FAIR      52  21  30 SW24G33   29.70F
NUCLA          FAIR      45  19  36 S25G39    29.75F
$$

COZ017>023-064>068-272200-
...SOUTHWEST COLORADO...

CITY           SKY/WX    TMP DP  RH WIND       PRES   REMARKS
DURANGO        FAIR      40  19  43 SW14      29.84F
CORTEZ         FAIR      46  21  37 SW25      29.81F
PAGOSA SPRINGS LGT SNOW  33  25  71 SW10G20   29.85F WCI  25
TELLURIDE      FAIR      31  14  50 SW18G46   29.75R HAZE    WCI  19
WOLF CREEK PAS CLOUDY    14  14 100 S30G39    29.78R WCI  -7
$$

COZ009-010-012-014-032>034-037-058>063-272200-
...CENTRAL COLORADO...

CITY           SKY/WX    TMP DP  RH WIND       PRES   REMARKS
ASPEN          CLOUDY    33  19  56 S10G25    29.62F WCI  25
BUENA VISTA    FAIR      38   4  23 S13G30    29.64S
COPPER MTN     LGT SNOW  19  10  68 SW10G23   29.61F WCI   8
BERTHOUD PASS  CLOUDY    14   3  62 W22G38    29.58F WCI  -4
COTTONWOOD PAS PTSUNNY   32   3  29 SW14G30   29.65S WCI  22
GUNNISON       FAIR      17   6  62 E10       29.73F WCI   5
KREMMLING      CLOUDY    41  21  45 SW23G30   29.60F
LEADVILLE      CLOUDY    27   3  35 SW18G28   29.61F WCI  14
MONARCH PASS   CLOUDY    16   7  67 W28G44    29.76F WCI  -4
SALIDA         FAIR      43   8  23 SW14G21   29.72S
SUNLIGHT       NOT AVBL
WILKERSON PASS PTSUNNY   28   3  34 SW12G26   29.65F WCI  18
$$

COZ069>075-272200-
...SAN LUIS VALLEY/SANGRE DE CRISTO MOUNTAINS...

CITY           SKY/WX    TMP DP  RH WIND       PRES   REMARKS
ALAMOSA        FAIR      39  20  46 SW33G41   29.78S
LA VETA PASS   CLOUDY    27  16  63 S33G54    29.73R WCI   9
SAGUACHE       FAIR      41  12  30 SW16G25   29.70S
$$

COZ035-036-038>040-272200-
...NORTHERN COLORADO FRONT RANGE...

CITY           SKY/WX    TMP DP  RH WIND       PRES   REMARKS
DENVER INTL AP FAIR      58   5  12 SW25G32   29.49F
DMNS CITY PARK   N/A     53  10  17 N13G26    29.50S
AURORA         PTSUNNY   54   4  13 W20G36    29.51F
FRONT RANGE AP NOT AVBL
ERIE MUNI ARPT FAIR      51  12  21 N9        29.52F
BOULDER MUN AP FAIR      46  18  31 N5        29.52F
CENTENNIAL     PTSUNNY   54   5  14 SW28G33   29.52F
BROOMFIELD     PTSUNNY   48  14  25 N7        29.53F
FORT COLLINS   FAIR      49  17  28 VRB3      29.54F
LONGMONT       NOT AVBL
$$

COZ041-046-047-076>085-087-088-272200-
...PIKES PEAK/PALMER DIVIDE AND SOUTHERN FOOTHILLS...

CITY           SKY/WX    TMP DP  RH WIND       PRES   REMARKS
COLO. SPRINGS  FAIR      53   4  13 SW24G33   29.60F
A. F. ACADEMY  FAIR      52   0  11 SW17G31   29.57F
SCHRIEVER AFB  FAIR      53   3  13 SW24G36   29.60F
ELLICOTT       FAIR     N/A N/A N/A SW26G35   29.59F
FALCON         FAIR      50   2  14 SW28G38   29.61F
FORT CARSON    FAIR      53   6  14 S21G30    29.59F
LIMON          FAIR      68   8   9 SW25G36   29.57F
MONUMENT HILL  FAIR      46   9  21 SW25G37   29.59S
TRINIDAD       FAIR      60  -1   8 SW24G38   29.67F
$$

COZ042>045-048>051-090-091-272200-
...NORTHEAST COLORADO...

CITY           SKY/WX    TMP DP  RH WIND       PRES   REMARKS
GREELEY ARPT   FAIR      55  11  17 S9G16     29.53F
AKRON          FAIR      55  11  17 S14G23    29.55F
BURLINGTON     FAIR      58  11  15 SW21G31   29.63F
WRAY           NOT AVBL
STERLING       NOT AVBL
HOLYOKE        FAIR      59  19  21 S15       29.60F
FORT MORGAN    FAIR      56   8  14 SE16G22   29.53F
$$

COZ086-089-092>099-272200-
...SOUTHEAST COLORADO...

CITY           SKY/WX    TMP DP  RH WIND       PRES   REMARKS
PUEBLO         FAIR      59  15  18 SW31G39   29.60F
LA JUNTA       FAIR      66   9  10 W30G39    29.60F
LAMAR          FAIR      63   9  12 SW12G26   29.61F
SPRINGFIELD      N/A     61  11  14 SW17G28   29.65F
$$



USA.gov is the U.S. government's official web portal to all federal, state and local government web resources and services.